Location: Gu�tanj
(46.5431°N, 14.9692°E)
Time: 13:28:54
(UTC+00:00)

Cosmos 1862 Rocket - Pass Details

Date: 03 March 2021
Orbit: 603 x 634 km, 82.5° (Epoch: 14 April)

Event Time Altitude Azimuth Distance (km) Brightness Sun altitude
Rises 17:21:58 0° 354° (N) 2,944 7.1 -6.5°
Reaches altitude 10° 17:24:15 10° 358° (N) 2,031 6.2 -6.9°
Maximum altitude 17:28:42 57° 78° (ENE) 747 3.7 -7.6°
Drops below altitude 10° 17:33:05 10° 158° (SSE) 2,009 6.0 -8.4°
Sets 17:35:21 0° 162° (SSE) 2,908 6.8 -8.8°
